This is the latest recevied weather packets stored in our database for station/object N1HQ. If no packets are shown the sender has not sent any weather packets the latest 10 day(s).
| Time | Temp. | Humidity | Pressure | Rain* | Wind** | Luminosity | Snow |
|---|---|---|---|---|---|---|---|
| 1777902636 | 20.56° C | 59% | 1016.3 hPa | 0 mm | - | - | - |
| 1777902388 | 20.56° C | 60% | 1016.3 hPa | 0 mm | - | - | - |
| 1777902088 | 20.56° C | 59% | 1016.5 hPa | 0 mm | - | - | - |
| 1777901808 | 20° C | 61% | 1016.4 hPa | 0 mm | - | - | - |
| 1777901553 | 19.44° C | 60% | 1016.4 hPa | 0 mm | - | - | - |
| 1777901308 | 19.44° C | 61% | 1016.4 hPa | 0 mm | - | - | - |
| 1777901008 | 19.44° C | 62% | 1016.4 hPa | 0 mm | - | - | - |
| 1777900708 | 18.89° C | 64% | 1016.3 hPa | 0 mm | - | - | - |
| 1777900413 | 18.33° C | 63% | 1016.1 hPa | 0 mm | - | - | - |
| 1777900147 | 18.33° C | 64% | 1016.1 hPa | 0 mm | - | - | - |
| 1777899668 | 17.78° C | 67% | 1016 hPa | 0 mm | - | - | - |
| 1777899366 | 17.78° C | 71% | 1016.1 hPa | 0 mm | - | - | - |
| 1777899123 | 17.22° C | 72% | 1016.1 hPa | 0 mm | - | - | - |
| 1777898878 | 17.22° C | 73% | 1016.1 hPa | 0 mm | - | - | - |
| 1777898588 | 17.22° C | 73% | 1016 hPa | 0 mm | - | - | - |
| 1777898333 | 16.67° C | 73% | 1016 hPa | 0 mm | - | - | - |
| 1777898077 | 16.67° C | 76% | 1015.8 hPa | 0 mm | - | - | - |
| 1777897793 | 16.11° C | 78% | 1015.9 hPa | 0 mm | - | - | - |
| 1777897491 | 15.56° C | 79% | 1015.7 hPa | 0 mm | - | - | - |
| 1777897233 | 15.56° C | 82% | 1015.8 hPa | 0 mm | - | - | - |
| 1777896938 | 14.44° C | 85% | 1015.8 hPa | 0 mm | - | - | - |
| 1777896655 | 13.89° C | 91% | 1015.9 hPa | 0 mm | - | - | - |
| 1777896358 | 12.78° C | 96% | 1015.9 hPa | 0 mm | - | - | - |
| 1777896062 | 12.22° C | 10% | - | 0 mm | - | - | - |
| 1777895822 | 11.67° C | 10% | - | 0 mm | - | - | - |
* Rain latest hour (hover to see other rain measurements)
** Current wind speed in m/s (hover to see current wind gust speed)